Vertical_Velocity
0 -0 -1 -2 -2 -2 -3 -3 -2 -2 -2 -2 -2 -2 -2 0 0 -0 -2 -3 -2 -2 -3 -3 -1 -2 -1 -0 1 -1 -0 -2 -1 -0 -0 -1 -1 1 -3 -4 2 -1 3 1 4 0 3
-1 -2 -2 -1 -0 -1 -1 -1 -1 -1 -1 -1 -2 -3 -3 -2 -3 -2 -2 -2 -2 -1 1 -1 -1 -1 -2 -6 -2 -0 0 -0 -0 -0 -0 3 1 2 -3 1 2 -4 -4 1 -4 1 -5
-2 -1 -1 -1 -3 -2 -2 -1 -1 -2 -2 -2 -3 -2 -3 -3 -2 -2 -2 -4 -2 -1 -1 1 1 -1 -3 4 -2 -1 -0 -0 0 2 1 -1 -1 4 1 4 -1 1 -7 2 0 -2 -6
-1 -1 -0 -1 0 2 2 1 -1 -1 -2 -3 -2 -2 -3 -3 -3 -2 -0 0 -3 -0 -0 -1 0 -3 -2 1 -1 0 1 -0 0 2 2 4 4 0 2 3 -0 0 -1 -7 6 1 0
-2 -1 1 0 0 -1 -2 -1 1 2 1 -1 -2 -1 -0 -1 -2 0 1 -0 -3 -2 -2 -2 -0 2 -1 -1 2 1 -0 -0 1 3 3 4 0 1 1 1 1 -3 -6 -4 -9 6 7
2 1 -0 -1 -1 -1 -0 -0 -0 -1 0 1 1 0 -1 -2 -3 -2 -1 -0 -2 -2 0 -1 -1 -0 -0 -3 -3 -0 2 3 1 3 4 0 2 -0 0 2 -16 -1 2 -3 -6 -4 -2
-1 -3 -2 -2 -2 -1 -1 -1 -1 -3 -4 -6 -7 -6 -3 -6 -6 -6 3 -1 -3 -7 -0 2 7 -7 4 -0 -0 -0 -0 2 1 2 1 6 4 -15 9 5 6 2 3 -1 -5 6 4
-1 -2 -0 0 -1 -2 -2 -3 -2 -2 -2 -2 -4 -3 -1 -0 -2 -3 -4 -2 -1 -6 -32 14 -2 -2 -3 2 -4 4 7 5 -2 -0 1 3 -13 13 1 3 5 7 3 -13 -10 5 8
-1 -1 -0 -2 -1 -0 0 -0 0 -1 -3 -3 -2 -2 -1 3 -2 -2 -2 -2 -2 -2 -7 -9 2 4 0 0 -2 2 0 2 0 2 3 1 -5 2 -2 -0 0 2 -4 -4 7 -0 -0
-2 -2 -2 -2 -1 -2 -2 -2 -2 -2 -2 -2 -2 -3 -1 4 -3 -3 -2 -2 -3 -3 -2 -2 0 0 1 -1 -0 0 -0 2 1 1 -1 -2 1 -2 2 -4 9 -3 5 1 -2 5 -3
-2 -1 -1 -2 -1 -2 -2 -2 -2 -3 -1 1 -1 -2 2 -8 3 -3 -0 -1 -2 -0 -3 -2 -3 -4 -1 -0 -1 0 0 1 1 -1 -2 -1 -1 1 -1 -2 1 -4 -1 0 -0 -1 4
-1 -2 -2 -2 -3 -2 -1 -2 -2 -2 -3 -1 -3 -3 -3 -1 -6 -1 0 -1 -2 -1 -16 -1 2 1 -0 -2 -1 -0 1 -1 2 2 2 -5 1 -3 -2 3 2 6 5 1 -1 5 3
-2 -2 -3 -1 -2 -3 -1 -2 -3 -3 -3 -2 -2 -2 -4 -2 2 0 0 -1 -0 -3 -3 2 1 0 3 4 2 3 4 2 3 1 -1 2 -3 0 4 5 4 4 4 -4 -1 2 -7
-1 -2 -3 -2 -2 -1 -2 -2 -1 -2 -3 -1 1 -1 -1 -2 -2 1 3 1 1 -1 -2 -0 -1 2 -1 0 -1 -1 1 -3 2 2 2 -1 -7 3 4 5 7 4 5 -6 -3 -2 -2
-1 -2 -2 -2 -2 -1 -1 -0 0 -1 -3 -3 1 1 -2 -0 2 1 2 3 -1 1 -1 -1 1 -2 -1 1 6 2 -2 3 1 1 -4 -2 -3 -1 1 -1 -1 2 -1 3 0 2 1
-2 -3 -2 -1 -0 -2 -2 -0 -0 -2 -2 -5 -3 2 1 -2 -2 2 0 -4 -5 -1 1 1 -0 1 -0 -2 -0 -1 -3 0 1 1 3 5 -3 -2 4 6 2 -5 2 3 1 -1 -0
-1 -2 -2 -0 -1 -2 -2 -1 -1 -1 -1 -2 -1 -2 -2 0 2 -1 -3 -1 -3 -2 -2 1 -2 -3 -3 -2 -1 -1 -0 3 5 0 3 1 3 -6 1 -1 2 4 4 5 3 1 0
-1 -0 -1 -1 -0 -1 -1 -1 0 -0 -3 -1 -3 -1 -1 -0 1 1 1 5 3 2 3 5 -1 1 0 1 -2 1 -7 -0 -4 -2 1 2 3 -2 -5 -7 -1 -0 -4 4 10 -4 4
-1 -2 -1 0 -1 -1 0 1 1 1 1 1 -2 -5 -1 3 -1 2 -1 -1 -2 -3 -1 -1 1 -0 1 1 -1 2 2 -3 0 4 6 2 5 -2 -2 4 2 3 -1 3 5 3 -5
-1 -1 0 0 1 0 -0 -1 -1 -1 -1 -4 -1 -1 0 2 5 7 6 2 3 8 3 7 5 5 5 -1 1 -3 -3 -1 5 1 8 3 2 -4 -8 -1 1 -2 4 10 8 4 -5
-2 -0 0 0 -2 3 4 4 5 4 4 8 -1 -2 -2 -4 -1 0 3 3 -0 -1 -5 1 -5 -2 4 -1 -7 -10 4 1 -2 -3 1 13 1 -1 -3 -2 1 -4 -1 -4 5 3 5
-1 -1 -0 1 3 3 4 5 1 7 5 12 9 2 -4 1 1 -5 5 -9 -1 -4 5 -5 -6 6 3 -5 1 1 2 11 8 4 7 -4 -7 -3 -14 -2 3 -8 0 1 2 -1 -5
-0 -1 -2 -2 -2 -1 2 3 1 6 11 9 8 -2 10 -9 -5 7 -4 -2 -6 9 -4 -2 3 2 1 -2 8 -2 -1 -7 -2 -4 2 2 7 8 -12 -3 2 -3 -5 3 3 1 1
-0 2 3 1 -1 1 1 0 6 8 13 11 13 25 21 -19 6 5 -5 1 7 8 9 -2 5 13 4 2 -1 -1 2 3 5 -4 10 -0 7 15 1 4 1 -7 1 2 2 0 -1
-1 -1 -1 -2 -2 -3 -2 -1 7 16 18 8 26 20 18 -13 5 0 -3 1 4 5 -7 2 15 3 1 3 4 -11 -9 -7 -10 -2 3 5 16 4 1 -0 -0 -2 -3 -1 0 -3 -1
-2 -0 1 3 4 -1 2 -4 -7 5 15 25 19 22 15 2 -34 8 -1 9 -6 -1 6 6 4 2 1 21 7 -2 -2 -4 -0 1 1 0 1 18 7 2 -2 0 2 1 -0 -2 -1
-2 0 0 0 -0 5 2 2 -2 -2 -2 10 10 18 15 19 9 10 -3 7 6 -1 -5 4 -0 -4 9 10 1 -1 -6 -2 1 -4 -4 0 1 -9 2 1 5 3 2 1 1 -0 0
-3 -4 -3 1 -1 4 -3 -2 -0 -0 4 2 -14 -5 18 18 -6 -7 9 -2 5 -0 1 -3 18 -15 -2 -0 6 9 1 -2 -1 -2 -0 4 0 2 9 3 0 -0 2 3 1 -0 -0
-1 -5 -2 -1 -1 -3 1 -0 0 -1 2 7 -2 12 1 12 -7 6 2 1 5 8 -3 19 -6 5 18 12 -1 -0 1 0 4 -0 8 6 1 1 0 -1 1 -0 2 2 1 1 1
Height
3162 3160 3158 3157 3155 3153 3151 3149 3147 3145 3142 3140 3137 3134 3132 3129 3127 3124 3122 3119 3116 3114 3110 3107 3106 3104 3103 3102 3102 3099 3098 3097 3096 3096 3096 3095 3094 3094 3092 3091 3090 3086 3087 3087 3086 3086 3085
3161 3160 3157 3155 3153 3151 3149 3147 3145 3143 3140 3138 3134 3131 3129 3126 3124 3121 3118 3114 3112 3109 3107 3104 3101 3099 3097 3097 3096 3095 3094 3093 3093 3092 3091 3090 3090 3089 3088 3086 3085 3083 3082 3081 3080 3081 3079
3160 3158 3156 3154 3152 3149 3147 3145 3142 3140 3137 3134 3130 3127 3124 3121 3118 3116 3113 3109 3105 3103 3101 3098 3095 3092 3090 3092 3090 3087 3086 3086 3086 3086 3086 3085 3085 3084 3082 3081 3079 3078 3076 3075 3075 3075 3074
3158 3157 3154 3152 3149 3146 3144 3142 3139 3136 3133 3129 3126 3122 3118 3114 3111 3109 3106 3102 3099 3097 3094 3092 3089 3086 3083 3083 3082 3081 3080 3080 3079 3079 3079 3079 3079 3078 3077 3077 3075 3074 3071 3068 3069 3070 3069
3155 3153 3151 3149 3146 3143 3140 3137 3134 3131 3128 3124 3120 3116 3112 3108 3103 3100 3098 3095 3091 3089 3087 3085 3083 3080 3077 3075 3074 3073 3073 3073 3073 3073 3073 3073 3073 3073 3072 3072 3071 3068 3063 3063 3064 3065 3063
3154 3151 3149 3147 3143 3140 3137 3134 3130 3126 3123 3119 3114 3111 3106 3101 3095 3092 3089 3085 3082 3079 3078 3076 3074 3076 3072 3070 3069 3069 3069 3069 3069 3069 3069 3069 3068 3066 3066 3067 3064 3063 3060 3058 3058 3059 3057
3152 3149 3147 3143 3140 3136 3133 3129 3125 3121 3117 3113 3109 3102 3097 3092 3087 3083 3080 3079 3078 3075 3070 3070 3068 3065 3064 3062 3062 3061 3061 3063 3063 3063 3064 3064 3063 3060 3062 3063 3060 3059 3056 3053 3052 3053 3048
3148 3145 3142 3139 3135 3132 3128 3124 3121 3116 3110 3104 3099 3094 3089 3084 3080 3077 3074 3071 3067 3064 3058 3060 3058 3054 3052 3050 3049 3050 3052 3054 3054 3054 3055 3055 3051 3057 3056 3056 3055 3052 3050 3047 3045 3047 3043
3145 3141 3138 3135 3131 3128 3124 3118 3113 3108 3103 3097 3092 3087 3083 3079 3076 3072 3069 3066 3062 3058 3052 3051 3044 3042 3042 3042 3040 3042 3043 3042 3043 3044 3045 3044 3046 3047 3047 3047 3047 3047 3045 3044 3043 3040 3036
3140 3137 3133 3129 3125 3121 3117 3111 3107 3101 3096 3091 3086 3083 3079 3077 3074 3069 3066 3062 3059 3055 3046 3042 3039 3038 3038 3037 3037 3036 3035 3039 3036 3037 3038 3036 3037 3036 3038 3037 3040 3039 3041 3040 3038 3037 3033
3135 3132 3127 3122 3117 3112 3107 3102 3099 3095 3091 3086 3082 3078 3074 3069 3068 3064 3063 3059 3056 3054 3053 3041 3038 3037 3036 3038 3036 3034 3033 3032 3032 3032 3034 3033 3032 3031 3031 3032 3033 3033 3033 3033 3032 3032 3029
3128 3125 3120 3115 3110 3104 3100 3094 3091 3088 3084 3081 3077 3073 3070 3065 3062 3060 3057 3056 3055 3057 3045 3037 3035 3034 3034 3033 3033 3032 3032 3030 3029 3027 3025 3026 3026 3026 3026 3027 3027 3027 3027 3026 3026 3025 3022
3122 3117 3112 3107 3102 3097 3093 3089 3086 3082 3079 3075 3071 3068 3065 3061 3059 3055 3053 3052 3055 3049 3042 3036 3033 3032 3031 3030 3029 3028 3027 3027 3027 3024 3021 3019 3019 3019 3021 3020 3020 3020 3021 3023 3022 3022 3013
3116 3111 3105 3099 3095 3091 3086 3083 3080 3076 3073 3070 3066 3062 3058 3057 3053 3050 3048 3048 3047 3037 3035 3031 3031 3029 3028 3027 3025 3024 3022 3020 3021 3021 3019 3017 3014 3015 3014 3016 3017 3015 3016 3015 3013 3013 3009
3108 3103 3098 3094 3089 3085 3081 3078 3074 3069 3065 3063 3060 3055 3052 3050 3047 3044 3044 3040 3034 3031 3029 3027 3027 3024 3023 3022 3023 3019 3017 3016 3015 3015 3016 3012 3009 3010 3010 3012 3014 3014 3014 3013 3011 3008 3008
3101 3097 3093 3088 3084 3080 3075 3071 3068 3063 3058 3054 3054 3051 3046 3044 3041 3038 3036 3032 3030 3028 3026 3023 3022 3023 3019 3019 3019 3017 3014 3012 3011 3011 3010 3008 3006 3005 3008 3007 3008 3009 3010 3010 3010 3009 3003
3096 3092 3088 3083 3078 3074 3070 3065 3060 3055 3050 3045 3043 3042 3038 3035 3033 3030 3027 3022 3020 3021 3020 3019 3015 3014 3013 3013 3013 3012 3010 3009 3007 3006 3006 3005 3005 3002 3002 3003 3004 3004 3003 3004 3004 3003 2997
3089 3084 3080 3076 3071 3067 3062 3057 3053 3049 3042 3038 3033 3033 3031 3028 3029 3021 3017 3015 3014 3013 3014 3012 3009 3008 3007 3008 3005 3005 3001 3003 3001 3002 2999 3000 2998 2995 2996 2998 2997 2997 2996 2998 2998 2995 2993
3081 3077 3071 3067 3063 3058 3052 3048 3043 3039 3033 3027 3022 3017 3023 3021 3016 3013 3010 3010 3007 3006 3006 3005 3003 3002 3002 3003 3001 2997 2995 2996 2996 2996 2994 2994 2993 2992 2991 2992 2991 2990 2991 2992 2992 2991 2988
3073 3068 3062 3057 3053 3048 3043 3037 3034 3029 3025 3020 3017 3011 3010 3011 3010 3007 3005 3001 3000 2999 2997 2998 2996 2997 2997 2995 2997 2992 2990 2990 2989 2989 2991 2990 2987 2987 2987 2988 2988 2987 2987 2988 2988 2986 2981
3062 3057 3051 3045 3042 3037 3031 3027 3024 3021 3019 3013 3008 3006 3003 3002 3002 3003 3004 3001 2999 2997 2997 2996 2993 2994 2994 2990 2988 2986 2986 2985 2985 2985 2984 2984 2980 2981 2981 2982 2982 2979 2978 2980 2978 2977 2976
3050 3044 3038 3032 3028 3024 3020 3017 3016 3015 3014 3008 3003 3002 2999 2996 2995 2995 2994 2991 2991 2991 2990 2987 2987 2987 2986 2984 2985 2982 2979 2979 2977 2979 2978 2977 2974 2974 2971 2974 2974 2971 2969 2969 2967 2966 2965
3039 3033 3027 3021 3016 3012 3009 3008 3007 3007 3005 2997 2993 2993 2990 2985 2985 2984 2986 2982 2981 2984 2980 2980 2980 2979 2977 2979 2977 2975 2974 2974 2973 2973 2973 2972 2971 2968 2963 2965 2966 2964 2960 2959 2958 2958 2959
3027 3021 3015 3009 3004 3001 2998 2998 2997 2995 2993 2988 2986 2986 2981 2973 2977 2978 2977 2979 2976 2974 2972 2973 2973 2972 2973 2971 2970 2968 2967 2965 2965 2964 2964 2963 2964 2964 2958 2959 2959 2953 2952 2953 2953 2953 2953
3015 3008 3002 2996 2992 2990 2988 2987 2987 2986 2985 2981 2979 2978 2973 2967 2970 2969 2971 2969 2969 2967 2966 2964 2964 2966 2964 2964 2963 2961 2960 2958 2955 2955 2955 2954 2956 2956 2953 2953 2952 2950 2948 2948 2948 2949 2949
3003 2996 2992 2988 2984 2982 2979 2977 2976 2975 2972 2971 2970 2968 2963 2961 2960 2963 2962 2963 2960 2959 2959 2956 2957 2957 2957 2956 2956 2955 2953 2953 2951 2949 2948 2948 2948 2951 2948 2946 2944 2942 2943 2944 2945 2945 2945
2994 2989 2985 2982 2979 2976 2973 2971 2968 2965 2964 2963 2961 2962 2959 2953 2951 2954 2954 2953 2954 2954 2953 2949 2949 2949 2950 2949 2949 2949 2947 2947 2945 2944 2944 2943 2943 2942 2941 2942 2939 2939 2940 2942 2945 2948 2942
2988 2982 2979 2976 2974 2971 2968 2964 2960 2957 2957 2956 2954 2954 2953 2947 2948 2948 2949 2949 2948 2949 2947 2946 2947 2944 2944 2944 2944 2941 2940 2940 2939 2938 2937 2938 2937 2936 2936 2936 2936 2936 2938 2941 2940 2938 2939
2983 2978 2975 2972 2969 2967 2964 2960 2955 2952 2951 2951 2947 2947 2946 2945 2943 2943 2942 2942 2942 2942 2942 2939 2940 2939 2938 2937 2938 2938 2936 2934 2933 2932 2930 2931 2932 2932 2934 2933 2932 2933 2933 2934 2934 2934 2933